H1 CPF 2 NER 2021 10 13 9 286 01 glonass142 H2 2001801 9142 45358 2021 10 13 0 0 0 2021 10 16 23 45 0 900 1 1 0 0 0 1 H9 10 0 59500 0.00000 0 -1916692.758 -10630530.761 -23090450.203 10 0 59500 900.00000 0 862415.933 -11222325.095 -22875052.759 10 0 59500 1800.00000 0 3538279.774 -12002350.244 -22214704.670 10 0 59500 2700.00000 0 6047508.485 -12941089.459 -21122355.949 10 0 59500 3600.00000 0 8333820.316 -13998765.020 -19619355.424 10 0 59500 4500.00000 0 10350132.940 -15127015.367 -17735027.022 10 0 59500 5400.00000 0 12060267.561 -16270950.922 -15506091.392 10 0 59500 6300.00000 0 13440196.710 -17371501.629 -12975944.508 10 0 59500 7200.00000 0 14478785.335 -18367957.052 -10193807.715 10 0 59500 8100.00000 0 15177996.217 -19200591.894 -7213766.066 10 0 59500 9000.00000 0 15552553.104 -19813266.240 -4093713.927 10 0 59500 9900.00000 0 15629077.737 -20155891.071 -894228.722 10 0 59500 10800.00000 0 15444738.885 -20186655.397 2322605.138 10 0 59500 11700.00000 0 15045471.747 -19873921.383 5494399.165 10 0 59500 12600.00000 0 14483843.984 -19197708.042 8559667.104 10 0 59500 13500.00000 0 13816659.002 -18150701.216 11459011.425 10 0 59500 14400.00000 0 13102397.963 -16738747.503 14136267.361 10 0 59500 15300.00000 0 12398608.312 -14980811.371 16539582.808 10 0 59500 16200.00000 0 11759348.505 -12908396.886 18622413.940 10 0 59500 17100.00000 0 11232795.933 -10564457.589 20344418.154 10 0 59500 18000.00000 0 10859117.999 -8001839.039 21672227.924 10 0 59500 18900.00000 0 10668695.233 -5281317.713 22580091.531 10 0 59500 19800.00000 0 10680770.580 -2469316.281 23050369.035 10 0 59500 20700.00000 0 10902581.413 364611.340 23073874.377 10 0 59500 21600.00000 0 11329010.812 3150422.541 22650057.219 10 0 59500 22500.00000 0 11942773.295 5820248.194 21787020.821 10 0 59500 23400.00000 0 12715128.071 8310965.427 20501375.063 10 0 59500 24300.00000 0 13607091.019 10566575.484 18817926.601 10 0 59500 25200.00000 0 14571095.803 12540288.868 16769210.962 10 0 59500 26100.00000 0 15553035.573 14196231.538 14394874.440 10 0 59500 27000.00000 0 16494600.506 15510701.439 11740916.436 10 0 59500 27900.00000 0 17335813.542 16472922.969 8858805.776 10 0 59500 28800.00000 0 18017657.819 17085267.673 5804487.312 10 0 59500 29700.00000 0 18484684.846 17362931.810 2637297.525 10 0 59500 30600.00000 0 18687492.686 17333084.276 -581189.976 10 0 59500 31500.00000 0 18584968.412 17033520.776 -3788366.265 10 0 59500 32400.00000 0 18146198.673 16510881.336 -6921812.244 10 0 59500 33300.00000 0 17351966.029 15818506.900 -9920522.419 10 0 59500 34200.00000 0 16195766.159 15014026.378 -12726102.326 10 0 59500 35100.00000 0 14684301.376 14156777.064 -15283915.214 10 0 59500 36000.00000 0 12837428.166 13305168.563 -17544154.678 10 0 59500 36900.00000 0 10687559.744 12514102.694 -19462821.427 10 0 59500 37800.00000 0 8278547.821 11832559.316 -21002584.621 10 0 59500 38700.00000 0 5664089.782 11301450.803 -22133510.729 10 0 59500 39600.00000 0 2905727.660 10951836.150 -22833645.639 10 0 59500 40500.00000 0 70522.307 10803570.263 -23089438.939 10 0 59500 41400.00000 0 -2771500.345 10864445.195 -22896002.537 10 0 59500 42300.00000 0 -5550024.463 11129859.168 -22257199.055 10 0 59500 43200.00000 0 -8197129.829 11583026.696 -21185558.889 10 0 59500 44100.00000 0 -10649876.268 12195720.249 -19702028.099 10 0 59500 45000.00000 0 -12852679.978 12929511.396 -17835552.548 10 0 59500 45900.00000 0 -14759383.744 13737458.375 -15622506.881 10 0 59500 46800.00000 0 -16334935.985 14566168.243 -13105979.825 10 0 59500 47700.00000 0 -17556609.980 15358146.056 -10334930.124 10 0 59500 48600.00000 0 -18414714.066 16054331.562 -7363229.864 10 0 59500 49500.00000 0 -18912764.954 16596716.090 -4248614.056 10 0 59500 50400.00000 0 -19067118.745 16930929.069 -1051557.281 10 0 59500 51300.00000 0 -18906076.921 17008685.038 2165900.582 10 0 59500 52200.00000 0 -18468506.679 16789988.109 5341356.631 10 0 59500 53100.00000 0 -17802034.799 16245001.063 8413251.712 10 0 59500 54000.00000 0 -16960892.012 15355500.407 11322058.487 10 0 59500 54900.00000 0 -16003499.336 14115856.355 14011428.099 10 0 59500 55800.00000 0 -14989897.980 12533496.349 16429273.680 10 0 59500 56700.00000 0 -13979130.812 10628832.400 18528770.492 10 0 59500 57600.00000 0 -13026684.906 8434654.611 20269254.227 10 0 59500 58500.00000 0 -12182101.869 5995015.271 21617000.948 10 0 59500 59400.00000 0 -11486855.434 3363648.782 22545874.536 10 0 59500 60300.00000 0 -10972584.587 601991.602 23037829.900 10 0 59500 61200.00000 0 -10659755.724 -2223117.088 23083262.704 10 0 59500 62100.00000 0 -10556809.574 -5041960.404 22681199.101 10 0 59500 63000.00000 0 -10659828.645 -7784591.459 21839321.643 10 0 59500 63900.00000 0 -10952739.496 -10383495.443 20573830.323 10 0 59500 64800.00000 0 -11408042.004 -12776157.051 18909140.597 10 0 59500 65700.00000 0 -11988035.884 -14907427.673 16877423.068 10 0 59500 66600.00000 0 -12646493.932 -16731594.554 14517992.517 10 0 59500 67500.00000 0 -13330712.493 -18214066.123 11876556.805 10 0 59500 68400.00000 0 -13983853.574 -19332603.215 9004339.033 10 0 59500 69300.00000 0 -14547480.216 -20078044.487 5957089.123 10 0 59500 70200.00000 0 -14964178.126 -20454495.335 2794003.435 10 0 59500 71100.00000 0 -15180152.301 -20478972.128 -423426.797 10 0 59500 72000.00000 0 -15147687.989 -20180516.483 -3632615.488 10 0 59500 72900.00000 0 -14827370.572 -19598816.928 -6771106.254 10 0 59500 73800.00000 0 -14189968.917 -18782396.350 -9777796.819 10 0 59500 74700.00000 0 -13217900.857 -17786442.233 -12594138.255 10 0 59500 75600.00000 0 -11906217.112 -16670372.059 -15165284.672 10 0 59500 76500.00000 0 -10263060.472 -15495237.570 -17441169.939 10 0 59500 77400.00000 0 -8309579.450 -14321078.426 -19377489.568 10 0 59500 78300.00000 0 -6079298.811 -13204337.799 -20936568.090 10 0 59500 79200.00000 0 -3616972.452 -12195449.625 -22088094.721 10 0 59500 80100.00000 0 -976966.086 -11336699.631 -22809712.957 10 0 59500 81000.00000 0 1778763.040 -10660450.386 -23087452.835 10 0 59500 81900.00000 0 4583005.359 -10187804.866 -22915997.870 10 0 59500 82800.00000 0 7365859.631 -9927764.270 -22298781.933 10 0 59500 83700.00000 0 10057408.566 -9876914.711 -21247914.790 10 0 59500 84600.00000 0 12590398.280 -10019654.950 -19783938.257 10 0 59500 85500.00000 0 14902810.349 -10328954.482 -17935418.259 10 0 59501 0.00000 0 16940219.865 -10767608.829 -15738381.406 10 0 59501 900.00000 0 18657843.126 -11289938.287 -13235606.183 10 0 59501 1800.00000 0 20022187.979 -11843856.902 -10475786.013 10 0 59501 2700.00000 0 21012242.923 -12373224.340 -7512576.832 10 0 59501 3600.00000 0 21620154.023 -12820380.186 -4403550.914 10 0 59501 4500.00000 0 21851364.056 -13128753.420 -1209076.502 10 0 59501 5400.00000 0 21724209.584 -13245436.657 2008854.572 10 0 59501 6300.00000 0 21268994.496 -13123616.339 5187828.372 10 0 59501 7200.00000 0 20526580.206 -12724756.387 8266216.010 10 0 59501 8100.00000 0 19546552.956 -12020443.321 11184363.182 10 0 59501 9000.00000 0 18385045.815 -10993815.077 13885739.397 10 0 59501 9900.00000 0 17102307.290 -9640513.345 16318025.041 10 0 59501 10800.00000 0 15760118.674 -7969119.231 18434116.036 10 0 59501 11700.00000 0 14419167.943 -6001053.254 20193027.498 10 0 59501 12600.00000 0 13136489.718 -3769943.054 21560679.786 10 0 59501 13500.00000 0 11963077.608 -1320483.970 22510552.688 10 0 59501 14400.00000 0 10941767.981 1293161.618 23024195.875 10 0 59501 15300.00000 0 10105482.841 4009361.256 23091586.286 10 0 59501 16200.00000 0 9475904.653 6761324.573 22711325.771 10 0 59501 17100.00000 0 9062638.088 9479636.571 21890675.054 10 0 59501 18000.00000 0 8862893.674 12094908.532 20645422.830 10 0 59501 18900.00000 0 8861706.765 14540438.071 18999591.693 10 0 59501 19800.00000 0 9032683.092 16754769.054 16984985.441 10 0 59501 20700.00000 0 9339240.213 18684045.613 14640585.279 10 0 59501 21600.00000 0 9736293.343 20284062.706 12011805.317 10 0 59501 22500.00000 0 10172315.149 21521927.698 9149620.587 10 0 59501 23400.00000 0 10591683.060 22377263.180 6109583.644 10 0 59501 24300.00000 0 10937215.024 22842900.267 2950748.210 10 0 59501 25200.00000 0 11152786.170 22925032.734 -265479.398 10 0 59501 26100.00000 0 11185914.960 22642825.051 -3476538.449 10 0 59501 27000.00000 0 10990208.193 22027490.527 -6619937.704 10 0 59501 27900.00000 0 10527559.907 21120878.343 -9634480.380 10 0 59501 28800.00000 0 9770009.460 19973629.258 -12461465.186 10 0 59501 29700.00000 0 8701178.431 18642978.281 -15045838.966 10 0 59501 30600.00000 0 7317223.878 17190297.612 -17337277.527 10 0 59501 31500.00000 0 5627266.135 15678484.310 -19291172.643 10 0 59501 32400.00000 0 3653271.729 14169303.513 -20869505.473 10 0 59501 33300.00000 0 1429395.114 12720799.801 -22041589.065 10 0 59501 34200.00000 0 -999193.935 11384886.094 -22784665.412 10 0 59501 35100.00000 0 -3577948.865 10205211.602 -23084345.662 10 0 59501 36000.00000 0 -6244982.716 9215398.240 -22934885.312 10 0 59501 36900.00000 0 -8933417.518 8437719.044 -22339289.510 10 0 59501 37800.00000 0 -11573948.926 7882273.181 -21309246.996 10 0 59501 38700.00000 0 -14097519.440 7546691.019 -19864894.504 10 0 59501 39600.00000 0 -16437988.994 7416380.305 -18034416.741 10 0 59501 40500.00000 0 -18534692.073 7465301.583 -15853490.174 10 0 59501 41400.00000 0 -20334775.370 7657238.731 -13364581.845 10 0 59501 42300.00000 0 -21795219.151 7947509.727 -10616117.250 10 0 59501 43200.00000 0 -22884459.016 8285044.216 -7661533.807 10 0 59501 44100.00000 0 -23583541.446 8614739.212 -4558238.607 10 0 59501 45000.00000 0 -23886766.048 8879992.684 -1366491.087 10 0 59501 45900.00000 0 -23801789.162 9025307.435 1851767.432 10 0 59501 46800.00000 0 -23349185.855 8998855.007 5034114.463 10 0 59501 47700.00000 0 -22561489.980 8754891.202 8118853.857 10 0 59501 48600.00000 0 -21481753.685 8255921.249 11046206.814 10 0 59501 49500.00000 0 -20161687.549 7474523.298 13759463.633 10 0 59501 50400.00000 0 -18659459.919 6394753.469 16206074.315 10 0 59501 51300.00000 0 -17037247.739 5013073.116 18338657.668 10 0 59501 52200.00000 0 -15358641.149 3338758.972 20115910.256 10 0 59501 53100.00000 0 -13686009.887 1393778.260 21503398.482 10 0 59501 54000.00000 0 -12077940.667 -787867.175 22474219.457 10 0 59501 54900.00000 0 -10586851.587 -3161301.758 23009518.660 10 0 59501 55800.00000 0 -9256882.199 -5672395.389 23098854.942 10 0 59501 56700.00000 0 -8122146.325 -8259775.504 22740406.079 10 0 59501 57600.00000 0 -7205419.786 -10857150.293 21941010.786 10 0 59501 58500.00000 0 -6517317.370 -13395848.357 20716045.869 10 0 59501 59400.00000 0 -6055993.202 -15807470.962 19089140.083 10 0 59501 60300.00000 0 -5807377.065 -18026548.005 17091729.073 10 0 59501 61200.00000 0 -5745937.054 -19993088.025 14762458.782 10 0 59501 62100.00000 0 -5835936.899 -21654916.569 12146447.590 10 0 59501 63000.00000 0 -6033135.445 -22969705.428 9294420.243 10 0 59501 63900.00000 0 -6286856.970 -23906607.531 6261729.520 10 0 59501 64800.00000 0 -6542345.002 -24447428.525 3107283.982 10 0 59501 65700.00000 0 -6743299.874 -24587285.159 -107597.594 10 0 59501 66600.00000 0 -6834492.051 -24334722.026 -3320382.520 10 0 59501 67500.00000 0 -6764339.542 -23711281.180 -6468547.445 10 0 59501 68400.00000 0 -6487338.940 -22750542.293 -9490803.869 10 0 59501 69300.00000 0 -5966245.559 -21496673.665 -12328300.934 10 0 59501 70200.00000 0 -5173908.680 -20002555.317 -14925781.001 10 0 59501 71100.00000 0 -4094682.545 -18327553.622 -17232664.491 10 0 59501 72000.00000 0 -2725351.855 -16535041.815 -19204041.937 10 0 59501 72900.00000 0 -1075531.249 -14689771.404 -20801553.345 10 0 59501 73800.00000 0 832479.400 -12855205.595 -21994137.444 10 0 59501 74700.00000 0 2964378.728 -11090927.283 -22758636.133 10 0 59501 75600.00000 0 5275058.827 -9450230.590 -23080242.593 10 0 59501 76500.00000 0 7710261.903 -7977996.807 -22952784.731 10 0 59501 77400.00000 0 10208629.670 -6708943.357 -22378838.912 10 0 59501 78300.00000 0 12704060.141 -5666318.246 -21369672.331 10 0 59501 79200.00000 0 15128273.629 -4861093.508 -19945015.689 10 0 59501 80100.00000 0 17413480.988 -4291690.007 -18132671.095 10 0 59501 81000.00000 0 19495043.045 -3944243.444 -15967963.292 10 0 59501 81900.00000 0 21314010.600 -3793398.598 -13493045.268 10 0 59501 82800.00000 0 22819439.372 -3803596.678 -10756072.158 10 0 59501 83700.00000 0 23970383.908 -3930799.940 -7810259.869 10 0 59501 84600.00000 0 24737487.890 -4124579.396 -4712847.004 10 0 59501 85500.00000 0 25104105.331 -4330476.389 -1523980.678 10 0 59502 0.00000 0 25066906.911 -4492537.395 1694451.630 10 0 59502 900.00000 0 24635947.032 -4555914.464 4880023.032 10 0 59502 1800.00000 0 23834190.216 -4469420.937 7970973.230 10 0 59502 2700.00000 0 22696517.461 -4187934.671 10907402.054 10 0 59502 3600.00000 0 21268254.973 -3674547.098 13632423.356 10 0 59502 4500.00000 0 19603287.529 -2902367.657 16093259.104 10 0 59502 5400.00000 0 17761835.522 -1855907.554 18242252.909 10 0 59502 6300.00000 0 15807988.437 -531984.402 20037784.279 10 0 59502 7200.00000 0 13807097.253 1059890.702 21445066.738 10 0 59502 8100.00000 0 11823133.724 2897660.794 22436815.383 10 0 59502 9000.00000 0 9916125.619 4947400.434 22993771.770 10 0 59502 9900.00000 0 8139773.701 7164496.082 23105076.529 10 0 59502 10800.00000 0 6539348.566 9495282.114 22768482.821 10 0 59502 11700.00000 0 5149953.932 11879066.272 21990406.408 10 0 59502 12600.00000 0 3995228.021 14250462.164 20785810.880 10 0 59502 13500.00000 0 3086536.594 16541933.546 19177929.464 10 0 59502 14400.00000 0 2422691.045 18686446.004 17197827.638 10 0 59502 15300.00000 0 1990203.335 20620116.632 14883813.816 10 0 59502 16200.00000 0 1764067.126 22284751.888 12280708.159 10 0 59502 17100.00000 0 1709032.515 23630167.817 9438982.480 10 0 59502 18000.00000 0 1781320.863 24616195.290 6413787.015 10 0 59502 18900.00000 0 1930707.413 25214285.641 3263882.326 10 0 59502 19800.00000 0 2102883.490 25408648.463 50496.798 10 0 59502 20700.00000 0 2241997.861 25196872.747 -3163867.730 10 0 59502 21600.00000 0 2293268.773 24590004.343 -6316658.481 10 0 59502 22500.00000 0 2205554.869 23612075.664 -9346497.743 10 0 59502 23400.00000 0 1933774.623 22299106.939 -12194387.367 10 0 59502 24300.00000 0 1441070.255 20697620.855 -14804867.238 10 0 59502 25200.00000 0 700622.832 18862733.147 -17127104.132 10 0 59502 26100.00000 0 -302959.758 16855899.842 -19115888.816 10 0 59502 27000.00000 0 -1572742.093 14742416.301 -20732521.383 10 0 59502 27900.00000 0 -3099087.078 12588773.584 -21945567.249 10 0 59502 28800.00000 0 -4859825.156 10459983.548 -22731469.001 10 0 59502 29700.00000 0 -6820960.630 8416984.983 -23075002.376 10 0 59502 30600.00000 0 -8937886.088 6514239.354 -22969567.917 10 0 59502 31500.00000 0 -11157054.387 4797616.436 -22417313.063 10 0 59502 32400.00000 0 -13418038.520 3302657.469 -21429082.915 10 0 59502 33300.00000 0 -15655893.384 2053287.327 -20024201.139 10 0 59502 34200.00000 0 -17803720.764 1061028.192 -18230085.801 10 0 59502 35100.00000 0 -19795330.509 324745.859 -16081708.073 10 0 59502 36000.00000 0 -21567886.844 -169062.614 -13620904.704 10 0 59502 36900.00000 0 -23064429.392 -445453.904 -10895558.040 10 0 59502 37800.00000 0 -24236163.904 -539732.317 -7958659.887 10 0 59502 38700.00000 0 -25044427.368 -495709.312 -4867277.686 10 0 59502 39600.00000 0 -25462245.870 -363603.538 -1681443.511 10 0 59502 40500.00000 0 -25475420.717 -197671.223 1537012.282 10 0 59502 41400.00000 0 -25083098.359 -53667.902 4725659.944 10 0 59502 42300.00000 0 -24297801.008 13750.793 7822678.280 10 0 59502 43200.00000 0 -23144917.413 -46420.800 10768048.359 10 0 59502 44100.00000 0 -21661675.979 -279145.190 13504710.124 10 0 59502 45000.00000 0 -19895643.457 -721206.300 15979659.892 10 0 59502 45900.00000 0 -17902812.224 -1399421.730 18144968.252 10 0 59502 46800.00000 0 -15745355.931 -2329277.961 19958699.531 10 0 59502 47700.00000 0 -13489146.493 -3514046.063 21385715.902 10 0 59502 48600.00000 0 -11201135.140 -4944415.608 22398351.578 10 0 59502 49500.00000 0 -8946705.422 -6598663.037 22976944.886 10 0 59502 50400.00000 0 -6787107.185 -8443348.692 23110218.494 10 0 59502 51300.00000 0 -4777076.908 -10434515.021 22795500.796 10 0 59502 52200.00000 0 -2962742.169 -12519337.800 22038784.045 10 0 59502 53100.00000 0 -1379896.445 -14638163.380 20854617.697 10 0 59502 54000.00000 0 -52715.236 -16726848.897 19265838.196 10 0 59502 54900.00000 0 1007033.528 -18719309.516 17303139.299 10 0 59502 55800.00000 0 1800252.081 -20550167.661 15004490.043 10 0 59502 56700.00000 0 2340237.562 -22157394.453 12414410.271 10 0 59502 57600.00000 0 2651880.454 -23484833.269 9583116.549 10 0 59502 58500.00000 0 2770370.318 -24484499.533 6565554.106 10 0 59502 59400.00000 0 2739463.382 -25118559.772 3420332.924 10 0 59502 60300.00000 0 2609385.314 -25360905.869 208588.373 10 0 59502 61200.00000 0 2434458.219 -25198257.192 -3007211.200 10 0 59502 62100.00000 0 2270553.043 -24630743.035 -6164486.223 10 0 59502 63000.00000 0 2172476.306 -23671939.718 -9201772.377 10 0 59502 63900.00000 0 2191403.133 -22348359.882 -12059926.774 10 0 59502 64800.00000 0 2372466.794 -20698414.853 -14683289.293 10 0 59502 65700.00000 0 2752608.382 -18770893.402 -17020775.417 10 0 59502 66600.00000 0 3358779.096 -16623020.888 -19026878.308 10 0 59502 67500.00000 0 4206572.567 -14318180.489 -20662560.044 10 0 59502 68400.00000 0 5299346.207 -11923392.465 -21896014.313 10 0 59502 69300.00000 0 6627869.633 -9506657.467 -22703285.576 10 0 59502 70200.00000 0 8170515.779 -7134275.332 -23068732.912 10 0 59502 71100.00000 0 9893987.257 -4868251.472 -22985329.846 10 0 59502 72000.00000 0 11754547.809 -2763899.027 -22454794.840 10 0 59502 72900.00000 0 13699707.432 -867736.269 -21487550.445 10 0 59502 73800.00000 0 15670290.683 784233.949 -20102512.456 10 0 59502 74700.00000 0 17602801.489 2167792.110 -18326713.693 10 0 59502 75600.00000 0 19431985.480 3271266.037 -16194770.174 10 0 59502 76500.00000 0 21093482.572 4095760.917 -13748200.446 10 0 59502 77400.00000 0 22526458.737 4654847.729 -11034611.723 10 0 59502 78300.00000 0 23676106.919 4973725.262 -8106769.002 10 0 59502 79200.00000 0 24495912.569 5087892.966 -5021565.546 10 0 59502 80100.00000 0 24949589.211 5041392.285 -1838915.148 10 0 59502 81000.00000 0 25012603.401 4884692.149 1379412.044 10 0 59502 81900.00000 0 24673225.815 4672309.064 4570987.369 10 0 59502 82800.00000 0 23933064.966 4460263.046 7673931.701 10 0 59502 83700.00000 0 22807061.878 4303477.340 10628110.398 10 0 59502 84600.00000 0 21322946.298 4253231.814 13376292.246 10 0 59502 85500.00000 0 19520177.560 4354777.477 15865250.338 10 0 59503 0.00000 0 17448414.751 4645212.466 18046784.132 10 0 59503 900.00000 0 15165578.481 5151708.976 19878644.888 10 0 59503 1800.00000 0 12735587.468 5890165.192 21325344.568 10 0 59503 2700.00000 0 10225859.586 6864339.561 22358837.503 10 0 59503 3600.00000 0 7704682.834 8065503.894 22959059.406 10 0 59503 4500.00000 0 5238563.241 9472630.851 23114315.217 10 0 59503 5400.00000 0 2889658.622 11053109.157 22821508.356 10 0 59503 6300.00000 0 713403.387 12763958.274 22086206.930 10 0 59503 7200.00000 0 -1243578.051 14553493.455 20922545.164 10 0 59503 8100.00000 0 -2945183.579 16363373.456 19352961.182 10 0 59503 9000.00000 0 -4367100.881 18130947.067 17407775.074 10 0 59503 9900.00000 0 -5497577.721 19791801.732 15124614.212 10 0 59503 10800.00000 0 -6337663.139 21282408.708 12547695.568 10 0 59503 11700.00000 0 -6900909.535 22542754.515 9726977.712 10 0 59503 12600.00000 0 -7212548.159 23518848.330 6717197.988 10 0 59503 13500.00000 0 -7308172.696 24164999.587 3576812.859 10 0 59503 14400.00000 0 -7231986.625 24445769.141 366861.727 10 0 59503 15300.00000 0 -7034688.648 24337510.681 -2850223.458 10 0 59503 16200.00000 0 -6771086.247 23829436.103 -6011839.131 10 0 59503 17100.00000 0 -6497539.234 22924158.604 -9056436.993 10 0 59503 18000.00000 0 -6269342.696 21637689.329 -11924731.845 10 0 59503 18900.00000 0 -6138161.463 19998886.749 -14560865.727 10 0 59503 19800.00000 0 -6149626.186 18048381.138 -16913504.712 10 0 59503 20700.00000 0 -6341194.124 15837019.030 -18936845.965 10 0 59503 21600.00000 0 -6740366.448 13423892.840 -20591514.892 10 0 59503 22500.00000 0 -7363338.494 10874038.290 -21845334.519 10 0 59503 23400.00000 0 -8214140.850 8255896.352 -22673952.014 10 0 59503 24300.00000 0 -9284308.155 5638645.999 -23061310.349 10 0 59503 25200.00000 0 -10553090.025 3089519.207 -22999956.295 10 0 59503 26100.00000 0 -11988195.448 671210.195 -22491179.238 10 0 59503 27000.00000 0 -13547039.471 -1560513.531 -21544978.697 10 0 59503 27900.00000 0 -15178439.801 -3558899.532 -20179861.690 10 0 59503 28800.00000 0 -16824691.967 -5287912.150 -18422474.447 10 0 59503 29700.00000 0 -18423935.842 -6723478.113 -16307076.085 10 0 59503 30600.00000 0 -19912714.116 -7854225.762 -13874864.841 10 0 59503 31500.00000 0 -21228615.226 -8681688.941 -11173170.407 10 0 59503 32400.00000 0 -22312889.836 -9219969.121 -8254528.370 10 0 59503 33300.00000 0 -23112931.104 -9494872.089 -5175655.075 10 0 59503 34200.00000 0 -23584514.721 -9542557.365 -1996343.210 10 0 59503 35100.00000 0 -23693705.016 -9407759.093 1221700.155 10 0 59503 36000.00000 0 -23418347.477 -9141654.792 4416050.336 10 0 59503 36900.00000 0 -22749085.404 -8799472.913 7524773.161 10 0 59503 37800.00000 0 -21689858.518 -8437940.897 10487621.110 10 0 59503 38700.00000 0 -20257862.843 -8112681.707 13247194.544 10 0 59503 39600.00000 0 -18482973.786 -7875668.690 15750045.893 10 0 59503 40500.00000 0 -16406656.484 -7772845.880 17947706.168 10 0 59503 41400.00000 0 -14080408.569 -7842013.614 19797614.768 10 0 59503 42300.00000 0 -11563799.719 -8111068.105 21263935.493 10 0 59503 43200.00000 0 -8922188.537 -8596668.760 22318243.954 10 0 59503 44100.00000 0 -6224210.555 -9303389.285 22940073.984 10 0 59503 45000.00000 0 -3539140.314 -10223388.606 23117313.049 10 0 59503 45900.00000 0 -934235.522 -11336616.149 22846439.422 10 0 59503 46800.00000 0 1527828.047 -12611544.099 22132596.483 10 0 59503 47700.00000 0 3791325.728 -14006397.374 20989502.275 10 0 59503 48600.00000 0 5809560.053 -15470831.465 19439195.311 10 0 59503 49500.00000 0 7546558.371 -16947989.551 17511620.416 10 0 59503 50400.00000 0 8978321.847 -18376854.150 15244061.390 10 0 59503 51300.00000 0 10093574.150 -19694795.940 12680430.137 10 0 59503 52200.00000 0 10893978.697 -20840213.543 9870424.766 10 0 59503 53100.00000 0 11393815.281 -21755153.598 6868572.039 10 0 59503 54000.00000 0 11619129.752 -22387800.702 3733172.035 10 0 59503 54900.00000 0 11606392.542 -22694731.603 525165.223 10 0 59503 55800.00000 0 11400722.852 -22642837.532 -2693055.828 10 0 59503 56700.00000 0 11053753.963 -22210832.184 -5858866.494 10 0 59503 57600.00000 0 10621230.642 -21390280.227 -8910637.330 10 0 59503 58500.00000 0 10160441.290 -20186101.429 -11788943.485 10 0 59503 59400.00000 0 9727594.666 -18616527.814 -14437731.645 10 0 59503 60300.00000 0 9375253.525 -16712514.526 -16805420.722 10 0 59503 61200.00000 0 9149935.029 -14516628.376 -18845913.874 10 0 59503 62100.00000 0 9089980.605 -12081460.293 -20519501.507 10 0 59503 63000.00000 0 9223786.289 -9467627.949 -21793637.317 10 0 59503 63900.00000 0 9568469.041 -6741452.247 -22643572.108 10 0 59503 64800.00000 0 10129025.816 -3972404.798 -23052833.270 10 0 59503 65700.00000 0 10898021.109 -1230432.966 -23013540.931 10 0 59503 66600.00000 0 11855816.165 1416725.957 -22526555.130 10 0 59503 67500.00000 0 12971330.087 3906129.913 -21601451.699 10 0 59503 68400.00000 0 14203300.583 6182009.447 -20256327.884 10 0 59503 69300.00000 0 15501990.982 8197839.084 -18517442.011 10 0 59503 70200.00000 0 16811271.452 9918017.650 -16418694.644 10 0 59503 71100.00000 0 18070986.563 11319088.996 -14000961.753 10 0 59503 72000.00000 0 19219509.374 12390453.856 -11311293.220 10 0 59503 72900.00000 0 20196374.451 13134545.108 -8401992.640 10 0 59503 73800.00000 0 20944878.945 13566461.141 -5329596.587 10 0 59503 74700.00000 0 21414542.326 13713074.732 -2153773.595 10 0 59503 75600.00000 0 21563321.456 13611656.853 1063835.509 10 0 59503 76500.00000 0 21359487.935 13308074.881 4260813.183 10 0 59503 77400.00000 0 20783089.242 12854642.550 7375173.280 10 0 59503 78300.00000 0 19826932.382 12307713.087 10346558.298 10 0 59503 79200.00000 0 18497048.894 11725117.505 13117402.815 10 0 59503 80100.00000 0 16812621.913 11163556.265 15634040.962 10 0 59503 81000.00000 0 14805378.088 10676053.995 17847737.176 10 0 59503 81900.00000 0 12518469.365 10309584.008 19715621.141 10 0 59503 82800.00000 0 10004890.583 10102962.037 21201509.712 10 0 59503 83700.00000 0 7325497.746 10085097.207 22276600.906 10 0 59503 84600.00000 0 4546708.041 10273673.349 22920027.435 10 0 59503 85500.00000 0 1737975.738 10674315.902 23119259.686 99